This is the latest recevied weather packets stored in our database for station/object I1SXT-13. If no packets are shown the sender has not sent any weather packets the latest 10 day(s).
| Time | Temp. | Humidity | Pressure | Rain* | Wind** | Luminosity | Snow |
|---|---|---|---|---|---|---|---|
| 1777628366 | 20° C | 33% | 1026.8 hPa | 0 mm | - | - | - |
| 1777628069 | 19.44° C | 34% | 1027.2 hPa | 0 mm | - | - | - |
| 1777627765 | 20° C | 33% | 1026.9 hPa | 0 mm | - | - | - |
| 1777627468 | 20° C | 34% | 1026.2 hPa | 0 mm | - | - | - |
| 1777627164 | 19.44° C | 33% | 1027.1 hPa | 0 mm | - | - | - |
| 1777626867 | 18.89° C | 34% | 1027.2 hPa | 0 mm | - | - | - |
| 1777626569 | 18.89° C | 34% | 1027.5 hPa | 0 mm | - | - | - |
| 1777625367 | 19.44° C | 32% | 1026.9 hPa | 0 mm | - | - | - |
| 1777625069 | 18.89° C | 34% | 1027.3 hPa | 0 mm | - | - | - |
| 1777624765 | 18.89° C | 34% | 1026.7 hPa | 0 mm | - | - | - |
| 1777624468 | 18.33° C | 35% | 1026.4 hPa | 0 mm | - | - | - |
| 1777624164 | 18.33° C | 36% | 1026.4 hPa | 0 mm | - | - | - |
| 1777623867 | 18.33° C | 36% | 1026.7 hPa | 0 mm | - | - | - |
| 1777623570 | 18.33° C | 37% | 1027.1 hPa | 0 mm | - | - | - |
| 1777623266 | 18.33° C | 33% | 1027.4 hPa | 0 mm | - | - | - |
| 1777622969 | 18.33° C | 35% | 1026 hPa | 0 mm | - | - | - |
| 1777622664 | 17.78° C | 35% | 1027 hPa | 0 mm | - | - | - |
| 1777622367 | 17.78° C | 32% | 1026.8 hPa | 0 mm | - | - | - |
| 1777621766 | 17.78° C | 34% | 1026 hPa | 0 mm | - | - | - |
| 1777621469 | 17.22° C | 36% | 1026 hPa | 0 mm | - | - | - |
| 1777621165 | 17.22° C | 40% | 1026.2 hPa | 0 mm | - | - | - |
| 1777620868 | 16.67° C | 39% | 1026 hPa | 0 mm | - | - | - |
| 1777620564 | 16.67° C | 44% | 1027.3 hPa | 0 mm | - | - | - |
| 1777620267 | 16.11° C | 41% | 1026.8 hPa | 0 mm | - | - | - |
| 1777619969 | 15.56° C | 54% | 1026.5 hPa | 0 mm | - | - | - |
* Rain since midnight (hover to see other rain measurements)
** Current wind speed in m/s (hover to see current wind gust speed)